This is the latest recevied weather packets stored in our database for station/object KF4WSW-13. If no packets are shown the sender has not sent any weather packets the latest 10 day(s).
| Time | Temp. | Humidity | Pressure | Rain* | Wind** | Luminosity | Snow |
|---|---|---|---|---|---|---|---|
| 1777558184 | 27.78° C | 73% | 1010.2 hPa | 0 mm | - | 641 W/m² | - |
| 1777557880 | 27.78° C | 74% | 1010.5 hPa | 0 mm | - | 524 W/m² | - |
| 1777557577 | 27.78° C | 73% | 1010.3 hPa | 0 mm | - | 484 W/m² | - |
| 1777557273 | 26.67° C | 75% | 1010.1 hPa | 0 mm | - | 470 W/m² | - |
| 1777556969 | 27.22° C | 74% | 1010.1 hPa | 0 mm | - | 449 W/m² | - |
| 1777556665 | 27.22° C | 74% | 1010.3 hPa | 0 mm | - | 441 W/m² | - |
| 1777556361 | 27.22° C | 75% | 1010.2 hPa | 0 mm | - | 423 W/m² | - |
| 1777556057 | 26.67° C | 76% | 1010.3 hPa | 0 mm | - | 423 W/m² | - |
| 1777555756 | 26.11° C | 77% | 1010.4 hPa | 0 mm | - | 386 W/m² | - |
| 1777555454 | 26.67° C | 78% | 1010.5 hPa | 0 mm | - | 423 W/m² | - |
| 1777555149 | 26.11° C | 78% | 1010.5 hPa | 0 mm | - | 289 W/m² | - |
| 1777554847 | 25.56° C | 81% | 1010.6 hPa | 0 mm | - | 231 W/m² | - |
| 1777554544 | 25° C | 82% | 1010.7 hPa | 0 mm | - | 197 W/m² | - |
| 1777554240 | 25° C | 82% | 1010.8 hPa | 0 mm | - | 136 W/m² | - |
| 1777553937 | 25° C | 82% | 1011.1 hPa | 0 mm | - | 104 W/m² | - |
| 1777553633 | 25° C | 81% | 1011.1 hPa | 0 mm | - | 89 W/m² | - |
| 1777553330 | 25° C | 83% | 1011.1 hPa | 0 mm | - | 116 W/m² | - |
| 1777553026 | 25° C | 83% | 1011.1 hPa | 0 mm | - | 142 W/m² | - |
| 1777552721 | 25° C | 83% | 1011.3 hPa | 0 mm | - | 125 W/m² | - |
| 1777552418 | 24.44° C | 84% | 1011.2 hPa | 0 mm | - | 117 W/m² | - |
| 1777552114 | 24.44° C | 84% | 1011.1 hPa | 0 mm | - | 88 W/m² | - |
| 1777551812 | 24.44° C | 84% | 1011.2 hPa | 0 mm | - | 77 W/m² | - |
| 1777551509 | 24.44° C | 84% | 1011.3 hPa | 0 mm | - | 78 W/m² | - |
| 1777551205 | 24.44° C | 84% | 1011.3 hPa | 0 mm | - | 66 W/m² | - |
| 1777550903 | 24.44° C | 83% | 1011 hPa | 0 mm | - | 48 W/m² | - |
* Rain latest hour (hover to see other rain measurements)
** Current wind speed in m/s (hover to see current wind gust speed)